timestamp,wind_dir_avg,wind_spd_avg,wind_spd_max_dir,wind_spd_gust,battery_voltage,lat,long
2024-02-15 00:04:00+00:00,23.0,18.58,20.0,21.87,11.93,47.59359,-54.27349
2024-02-15 00:14:00+00:00,21.0,17.61,18.0,22.24,11.86,47.59359,-54.27349
2024-02-15 00:24:00+00:00,23.0,19.34,19.0,23.41,11.86,47.59359,-54.27349
2024-02-15 00:34:00+00:00,17.0,20.54,16.0,25.19,11.86,47.59359,-54.27349
2024-02-15 00:44:00+00:00,5.0,15.59,25.0,20.63,11.86,47.59359,-54.27349
2024-02-15 00:54:00+00:00,4.0,15.01,4.0,20.21,11.86,47.59359,-54.27349
2024-02-15 01:04:00+00:00,10.0,16.96,21.0,20.72,11.86,47.59359,-54.27349
2024-02-15 11:14:00+00:00,0.0,13.79,331.0,18.25,11.77,47.59359,-54.27349
2024-02-15 11:24:00+00:00,357.0,16.23,339.0,20.23,11.77,47.59359,-54.27349
2024-02-15 11:34:00+00:00,355.0,17.46,334.0,20.99,11.77,47.59359,-54.27349
2024-02-15 11:44:00+00:00,1.0,16.15,3.0,19.26,11.77,47.59359,-54.27349
2024-02-15 11:54:00+00:00,3.0,14.1,358.0,18.24,11.77,47.59359,-54.27349
2024-02-15 12:04:00+00:00,350.0,16.36,334.0,20.09,11.77,47.59359,-54.27349
2024-02-15 12:14:00+00:00,0.0,15.76,357.0,18.14,12.41,47.59359,-54.27349
2024-02-15 12:24:00+00:00,340.0,17.18,337.0,19.97,12.41,47.59359,-54.27349
2024-02-15 12:34:00+00:00,3.0,14.17,4.0,16.03,12.41,47.59359,-54.27349
2024-02-15 12:44:00+00:00,359.0,17.33,357.0,20.74,12.41,47.59359,-54.27349
2024-02-15 12:54:00+00:00,348.0,15.47,334.0,19.24,12.41,47.59359,-54.27349
2024-02-15 13:04:00+00:00,349.0,14.69,327.0,20.77,12.41,47.59359,-54.27349
2024-02-15 13:14:00+00:00,350.0,15.26,356.0,18.22,13.6,47.59359,-54.27349
2024-02-15 13:24:00+00:00,354.0,14.47,329.0,18.2,13.6,47.59359,-54.27349
2024-02-15 13:34:00+00:00,350.0,14.7,332.0,19.23,13.6,47.59359,-54.27349
2024-02-15 13:44:00+00:00,357.0,16.27,357.0,20.58,13.6,47.59359,-54.27349
2024-02-15 13:54:00+00:00,335.0,17.28,336.0,19.4,13.6,47.59359,-54.27349
2024-02-15 14:04:00+00:00,346.0,15.38,332.0,19.2,13.6,47.59359,-54.27349
2024-02-15 14:14:00+00:00,2.0,15.75,2.0,18.65,13.68,47.59359,-54.27349
2024-02-15 14:24:00+00:00,347.0,15.81,356.0,21.06,13.68,47.59359,-54.27349
2024-02-15 14:34:00+00:00,355.0,14.06,334.0,18.58,13.68,47.59359,-54.27349
2024-02-15 14:44:00+00:00,353.0,13.55,335.0,17.09,13.68,47.59359,-54.27349
2024-02-15 14:54:00+00:00,359.0,13.99,341.0,17.75,13.68,47.59359,-54.27349
2024-02-15 15:04:00+00:00,348.0,13.48,346.0,17.66,13.68,47.59359,-54.27349
2024-02-15 15:14:00+00:00,352.0,14.75,346.0,17.41,13.53,47.59359,-54.27349
2024-02-15 15:24:00+00:00,343.0,15.45,330.0,17.82,13.53,47.59359,-54.27349
2024-02-15 15:34:00+00:00,346.0,13.31,323.0,16.73,13.53,47.59359,-54.27349
2024-02-15 15:44:00+00:00,350.0,13.77,331.0,20.66,13.53,47.59359,-54.27349
2024-02-15 15:54:00+00:00,350.0,14.06,330.0,19.0,13.53,47.59359,-54.27349
2024-02-15 16:04:00+00:00,1.0,15.06,358.0,18.34,13.53,47.59359,-54.27349
2024-02-15 16:14:00+00:00,347.0,15.22,330.0,18.13,13.21,47.59359,-54.27349
2024-02-15 16:24:00+00:00,2.0,14.68,359.0,16.78,13.21,47.59359,-54.27349
2024-02-15 16:34:00+00:00,355.0,13.36,326.0,17.68,13.21,47.59359,-54.27349
2024-02-15 16:44:00+00:00,359.0,15.0,332.0,18.5,13.21,47.59359,-54.27349
2024-02-15 16:54:00+00:00,2.0,12.2,7.0,14.46,13.21,47.59359,-54.27349
2024-02-15 17:04:00+00:00,359.0,15.03,6.0,18.22,13.21,47.59359,-54.27349
2024-02-15 17:14:00+00:00,0.0,14.89,348.0,18.65,13.53,47.59359,-54.27349
2024-02-15 17:24:00+00:00,358.0,15.93,336.0,19.93,13.53,47.59359,-54.27349
2024-02-15 17:34:00+00:00,346.0,14.82,2.0,20.2,13.53,47.59359,-54.27349
2024-02-15 17:44:00+00:00,351.0,13.15,327.0,16.1,13.53,47.59359,-54.27349
2024-02-15 17:54:00+00:00,349.0,14.01,329.0,17.31,13.53,47.59359,-54.27349
2024-02-15 18:04:00+00:00,331.0,13.82,326.0,16.53,13.53,47.59359,-54.27349
2024-02-15 18:14:00+00:00,337.0,14.09,328.0,16.92,13.29,47.59359,-54.27349
2024-02-15 18:24:00+00:00,352.0,13.66,0.0,17.69,13.29,47.59359,-54.27349
2024-02-15 18:34:00+00:00,353.0,14.95,336.0,17.03,13.29,47.59359,-54.27349
2024-02-15 18:44:00+00:00,345.0,14.05,328.0,17.91,13.29,47.59359,-54.27349
2024-02-15 18:54:00+00:00,351.0,13.69,339.0,16.54,13.29,47.59359,-54.27349
2024-02-15 19:04:00+00:00,350.0,12.56,325.0,17.54,13.29,47.59359,-54.27349
2024-02-15 19:14:01+00:00,350.0,12.06,325.0,16.9,13.05,47.59359,-54.27349
2024-02-15 19:24:01+00:00,340.0,14.09,329.0,17.79,13.05,47.59359,-54.27349
2024-02-15 19:34:01+00:00,359.0,15.8,341.0,19.22,13.05,47.59359,-54.27349
2024-02-15 19:44:01+00:00,338.0,15.14,327.0,19.23,13.05,47.59359,-54.27349
2024-02-15 19:54:01+00:00,352.0,14.23,347.0,17.32,13.05,47.59359,-54.27349
2024-02-15 20:04:01+00:00,357.0,15.34,5.0,17.29,13.05,47.59359,-54.27349
2024-02-15 20:14:00+00:00,345.0,14.98,332.0,19.3,12.65,47.59359,-54.27349
2024-02-15 20:24:00+00:00,339.0,15.81,329.0,18.99,12.65,47.59359,-54.27349
2024-02-15 20:34:00+00:00,354.0,18.51,339.0,24.41,12.65,47.59359,-54.27349
2024-02-15 20:44:00+00:00,347.0,15.77,333.0,20.69,12.65,47.59359,-54.27349
2024-02-15 20:54:00+00:00,340.0,16.54,335.0,22.63,12.65,47.59359,-54.27349
2024-02-15 21:04:00+00:00,332.0,17.28,333.0,21.12,12.65,47.59359,-54.27349
2024-02-15 21:14:01+00:00,348.0,15.6,332.0,18.64,12.33,47.59359,-54.27349
2024-02-15 21:24:01+00:00,340.0,15.65,330.0,19.3,12.33,47.59359,-54.27349
2024-02-15 21:34:01+00:00,335.0,16.65,337.0,23.18,12.33,47.59359,-54.27349
2024-02-15 21:44:01+00:00,336.0,16.29,332.0,20.25,12.33,47.59359,-54.27349
2024-02-15 21:54:01+00:00,331.0,14.24,330.0,18.44,12.33,47.59359,-54.27349
2024-02-15 22:04:01+00:00,340.0,14.17,329.0,18.92,12.33,47.59359,-54.27349
2024-02-15 22:14:01+00:00,338.0,13.45,326.0,17.43,12.25,47.59359,-54.27349
2024-02-15 22:24:01+00:00,328.0,16.69,327.0,18.47,12.25,47.59359,-54.27349
2024-02-15 22:34:01+00:00,345.0,14.3,355.0,19.06,12.25,47.59359,-54.27349
2024-02-15 22:44:01+00:00,344.0,13.83,331.0,19.64,12.25,47.59359,-54.27349
2024-02-15 22:54:01+00:00,328.0,14.97,328.0,17.73,12.25,47.59359,-54.27349
2024-02-15 23:04:01+00:00,331.0,15.04,329.0,17.33,12.25,47.59359,-54.27349
2024-02-15 23:14:00+00:00,330.0,14.19,327.0,17.48,12.25,47.59359,-54.27349
2024-02-15 23:24:00+00:00,328.0,14.6,329.0,17.96,12.25,47.59359,-54.27349
2024-02-15 23:34:00+00:00,338.0,13.36,327.0,17.4,12.25,47.59359,-54.27349
2024-02-15 23:44:00+00:00,326.0,15.47,330.0,18.61,12.25,47.59359,-54.27349
2024-02-15 23:54:00+00:00,329.0,16.62,332.0,18.79,12.25,47.59359,-54.27349
